sat.trackr.live / text

‹ back to catalog

ONEWEB-0303

NORAD 49187 · 2021-083B

PAYLOAD ACTIVE UNKNOWN

§ Identity

Operator
Country
UK
Launch date
2021-09-14
Launch site
TYMSC
Launch vehicle
Mass (kg)
RCS (m²)

Purposes: comms

External: N2YO · Heavens-Above · Gunter

§ Orbital elements

Epoch: 2026-09-09T16:17:00.843936Z

Period
109.20 min
Inclination
87.9181°
Eccentricity
0.0001992
Mean motion
13.18687467 rev/d
Perigee alt
1,188.2 km
Apogee alt
1,191.2 km
Semi-major
7,567.9 km
B*
-4.1353e-6
RAAN
318.6710°
Arg perigee
103.5374°
Mean anomaly
256.5980°
Rev number
24,111

§ Raw data

ONEWEB-03031 49187U 21083B   26252.67848199  .00000011  00000+0 -41353-5 0  99952 49187  87.9181 318.6710 0001992 103.5374 256.5980 13.18687467241110

JSON: /api/v1/satellites/49187 · /tle

For live sub-satellite position, see the globe view (requires WebGL).

§ Visibility from observer

Set your observer location to see the next 7 days of passes ≥ 10°. The values pass through the URL so the page stays shareable.

No JS? Fill the form by hand. The geolocation button needs JavaScript.